COSMOS 1275 DEB, 12962

Orbit data source: Space-Track

COSMOS 1275 DEB, 12962 is space debris in LEO originally from a launch on Thu, 04 Jun 1981 UTC launched from the Plesetsk Missile And Space Complex (PKMTR). Debris objects in space refer to the collection of defunct objects orbiting the Earth. Examples of debris include non-operational satellites, rocket bodies, and fragments generated from explosions, collisions, or faulty payload assembly.

Loading next visibility...
Identifier
12962, 1981-053EH
Orbit
LEO
Country
Flag of CISCIS
Related business
Manufacturer
Unknown
Mission
Spacecraft
Bus & Motor
Unknown
Mass
Unknown
Launch date (UTC)
1981-06-04 (45 years ago)
Launch vehicle
Unknown
Launch site
Plesetsk Missile And Space Complex (PKMTR)
Object type
Payload
Rocket body
Debris
Shape & HBR
Unknown shape, 0.1 m
Radar Cross Section
Small (<0.1 m²)

Expand to show TLE details & history
Last TLE update: 19 hours ago

TLE from 19 hours ago
0 COSMOS 1275 DEB
1 12962U 81053EH  26034.20328984  .00001357  00000-0  86377-3 0  9998
2 12962  82.9625 115.5540 0030011 149.0894 211.2052 14.02816879241720
Epoch: 2026-02-03T04:52Z
TLE epoch observation values (Epoch: 2026-02-03T04:52:44.242Z)
Latitude
-0.00005°
Longitude
-91.01794°
Altitude
905.659 km
Speed
7.39 km/s
True Right ascension
07h 42m 12s
True Declination
0° 00' 00"
Sunlit
Object was in full shadow at epoch
Visualization orbit readout
Latitude
Unknown
Longitude
Unknown
Altitude
Unknown
Speed
Unknown
Apparent Right ascension
Unknown
Apparent Declination
Unknown
Sunlit
N/A
Visualization observer readout
Local Sidereal Time
01:45:32
Azimuth
Unknown
Elevation
Unknown
Doppler factor
Unknown
Orbital elements
Apogee altitude
902.953 km
Perigee altitude
859.381 km
Semi-major axis
7,259.304 km
Eccentricity
0.003
Inclination
82.9625°
RAAN
115.554°
Arg. of periapsis
149.0894°
True anomaly
211.02759°
Mean anomaly
211.2052°
Eccentric anomaly
211.11634°
Mean motion
3.50914 °/min
Orbital period
102.59 mins
BSTAR
0.00086377
Loading maneuver chart data...
Computing Atmospheric mass density...
Loading historical data...
Loading historical data...
Loading historical data...
Loading historical data...
Loading historical data...
Loading historical data...
Loading historical data...

Documentation

Showing up to 5 results
|